Regional Weather Roundup
Issued by NWS

Home | Current Version | Previous Version | Graphics & Text | Print | Product List | Glossary On
Versions: 1 2 3 4 5 6 7 8 9 10 11 12 13 14 15 16 17 18 19 20 21 22 23 24 25 26 27 28 29 30 31 32 33 34 35 36 37 38 39 40 41 42 43 44 45 46 47 48
000
ASUS45 KSLC 201310
RWRUT

UTAH REGIONAL WEATHER ROUNDUP
NATIONAL WEATHER SERVICE SALT LAKE CITY UT
700 AM MDT SAT SEP 20 2014

UTZ001>011-023>025-201400-

NORTHERN UTAH

CITY           SKY/WX    TMP DP  RH WIND       PRES   REMARKS
HILL AFB       CLEAR     58  43  58 E17       30.17R
LOGAN          CLEAR     49  47  93 CALM      30.21R
OGDEN          CLEAR     57  44  62 S3        30.15R
PROVO AIRPORT  CLEAR     55  48  76 CALM      30.17S
SALT LAKE CITY PTCLDY    57  50  77 SE3       30.14R
VERNAL         CLEAR     54  42  64 W6        30.20R
WENDOVER       PTCLDY    61  45  55 CALM      30.15R
HEBER CITY     CLEAR     43  41  93 CALM      30.26R
WEST JORDAN    CLEAR     57  46  67 CALM      30.16R

$$

UTZ012>022-026-027-201400-

SOUTHERN UTAH

CITY           SKY/WX    TMP DP  RH WIND       PRES   REMARKS
BRYCE CANYON   CLEAR     45  41  86 W10       30.32R
CEDAR CITY     PTCLDY    52  45  77 CALM      30.17R
MILFORD        MOCLDY    57  43  59 N3        30.14R
MOAB/CYNLANDS  CLEAR     60  42  51 W3        30.08R
PRICE          CLEAR     62  42  47 W5        30.19R
ST GEORGE      SUNNY     70  43  37 CALM      29.99R
KANAB            N/A     55  45  67 NE6       30.15R

$$

REGIONAL REPORTS     COLORADO/ARIZONA

CITY           SKY/WX    TMP DP  RH WIND       PRES   REMARKS
CRAIG, CO      CLEAR     39  37  92 CALM      30.30R
GRAND JUNCTION CLEAR     59  44  57 E7        30.13R
RIFLE          CLEAR     50  43  77 SE7       30.23R
MONTROSE       CLEAR     53  44  71 S7        30.22R
CORTEZ         CLEAR     46  43  89 CALM      30.17R
PAGE, AZ       CLEAR     69  49  48 SE3       30.06R
GRAND CANYON   MOCLDY    50  48  93 NE3       30.22R
KINGMAN        PTCLDY    67  49  52 CALM      30.01R
FLAGSTAFF      CLEAR     47  45  93 CALM      30.25R

$$

REGIONAL REPORTS    NEVADA/IDAHO/WYOMING

CITY           SKY/WX    TMP DP  RH WIND       PRES   REMARKS
LAS VEGAS, NV  MOCLDY    78  40  25 S10       29.88R
ELY            CLEAR     45  35  68 S8        30.25R
ELKO           CLEAR     49  38  65 CALM      30.18R
POCATELLO, ID  CLEAR     44  42  93 CALM      30.21R
BURLEY         CLEAR     46  41  82 CALM      30.17R
EVANSTON, WY   CLEAR     50  37  61 E5        30.33R
ROCK SPRINGS   NOT AVBL

$$


USA.gov is the U.S. government's official web portal to all federal, state and local government web resources and services.